Wind_Speed
17 17 16 15 15 16 18 19 18 17 16 14 12 11 10 10 11 11 10 5 6 7 7 7 6 5 5 5 4 4 4 6 8 9 9 9 9 9 9 8 9 10 11 12 13 14 15 15 16 17 18 18 19 21 22 24 24 24 25 25 25 26 28 29 32 37 38 37 38 39 38 39 40 40 42 43 44 45 45 45 45 45 44 44 43
18 17 15 15 16 18 19 19 18 18 16 15 13 11 11 11 11 11 8 6 8 7 7 7 7 5 4 4 4 4 5 7 8 8 8 8 8 8 9 9 10 11 11 13 14 14 14 15 16 17 17 18 20 21 22 23 23 23 24 25 26 26 28 30 32 36 40 40 39 39 39 39 40 41 42 44 46 47 48 48 47 46 46 45 45
16 16 16 17 19 20 19 19 18 17 16 14 12 11 11 11 11 10 7 7 8 7 7 7 6 5 4 4 4 5 6 7 7 7 7 7 7 8 9 9 10 11 12 13 13 13 13 14 16 17 17 18 19 21 21 21 22 23 23 25 26 27 28 30 32 35 39 41 40 40 41 40 41 42 43 44 46 48 48 49 48 48 47 46 45
16 17 19 20 20 19 19 18 18 17 15 13 12 12 12 11 11 8 6 8 8 8 8 7 6 5 4 4 5 5 6 6 7 6 6 7 7 8 9 10 10 11 11 12 12 12 13 14 15 16 16 18 19 20 20 21 21 23 24 25 27 28 29 30 32 34 37 40 40 39 40 41 42 43 44 46 47 48 48 48 48 48 47 46 45
19 19 20 20 19 19 19 18 18 16 15 14 13 13 13 12 10 7 7 7 7 8 7 7 7 6 5 5 5 5 5 6 6 7 7 7 7 8 8 9 9 10 11 11 12 13 14 14 15 15 16 18 19 19 20 20 21 23 25 26 27 29 30 31 33 33 35 38 39 40 40 41 42 43 45 47 49 50 50 49 48 48 48 47 46
20 20 20 21 21 20 20 19 18 17 16 15 14 14 12 11 9 9 8 8 8 8 8 8 8 7 7 6 5 5 5 6 6 7 7 7 7 7 7 7 8 9 10 11 12 13 14 15 15 16 17 18 18 19 19 20 22 24 25 27 29 30 31 32 33 34 34 36 38 40 42 42 43 45 46 46 48 50 52 53 52 50 50 49 49
19 20 20 21 21 22 21 20 19 17 16 15 14 13 12 11 10 9 9 9 8 9 9 9 9 8 7 7 6 5 5 6 6 7 7 7 7 7 6 6 7 9 10 11 12 13 14 15 15 16 16 17 18 18 19 21 22 24 26 28 29 30 32 33 34 34 35 36 38 40 42 42 42 44 46 46 47 48 49 53 55 54 51 49 50
18 19 19 20 20 20 19 17 16 15 14 14 14 13 12 11 10 10 9 9 9 10 9 9 10 9 8 7 6 5 5 6 6 7 7 7 6 5 5 5 7 9 10 12 12 13 14 15 14 14 15 16 16 17 19 22 24 25 27 28 29 31 32 34 34 34 35 36 38 39 41 42 42 44 46 47 49 49 49 50 53 55 53 49 48
17 17 17 18 17 15 14 14 14 14 14 14 14 13 12 10 10 9 10 10 11 11 10 10 10 9 8 8 7 6 6 5 6 7 7 6 5 3 3 5 7 9 10 11 12 13 13 13 13 13 13 13 14 16 18 21 24 26 27 28 30 31 32 33 33 33 35 36 38 39 40 41 42 44 47 47 47 48 48 48 50 53 53 52 51
15 16 16 15 14 13 14 15 15 15 14 13 13 12 11 10 10 9 10 11 11 11 11 11 9 8 8 7 7 6 6 5 6 7 7 6 5 4 4 6 8 9 9 11 12 13 13 12 11 11 12 12 14 16 18 21 23 25 26 27 29 30 31 32 31 32 34 36 37 38 39 40 41 43 45 45 45 46 48 49 51 52 53 54 54
14 14 15 15 15 15 16 16 16 15 13 13 12 11 10 10 9 8 10 11 11 11 11 10 10 8 7 7 6 6 5 5 5 6 7 6 5 5 5 7 9 9 9 11 12 13 12 11 11 12 13 14 16 17 19 21 22 23 24 25 26 28 29 30 30 31 33 34 36 36 37 39 41 42 43 44 45 46 47 48 49 50 51 52 53
14 14 15 17 18 18 18 17 15 14 13 12 11 10 10 9 9 8 9 11 11 11 10 10 9 9 8 7 6 5 5 5 5 6 6 6 6 6 7 8 8 9 9 11 12 12 12 11 11 13 14 16 17 18 19 20 21 21 22 23 25 26 27 27 28 30 31 33 34 35 35 37 39 41 42 43 45 46 47 47 47 47 48 48 48
14 15 17 19 20 19 18 17 15 14 13 13 12 11 10 9 8 7 8 10 11 11 11 10 9 8 8 7 6 5 5 5 5 6 5 6 6 6 6 7 8 8 9 10 11 11 11 10 11 12 14 16 17 18 18 19 20 20 21 22 24 25 26 26 26 27 29 31 33 33 33 34 38 40 40 41 44 46 47 48 47 46 47 45 44
15 16 19 20 20 20 19 17 15 14 14 14 13 12 10 9 8 7 9 10 10 11 10 10 9 9 8 7 6 5 5 5 5 6 5 5 5 5 5 6 7 8 8 9 9 10 10 10 11 13 15 16 17 17 18 19 20 20 21 22 24 25 26 27 27 27 28 29 31 31 30 31 35 37 38 39 42 45 46 48 47 46 46 45 43
17 18 20 21 21 20 19 17 15 15 15 15 14 11 9 8 8 8 9 10 10 11 10 9 9 9 8 8 6 6 6 6 6 6 5 5 5 5 5 5 6 7 7 7 8 8 8 10 12 13 15 16 17 18 18 20 20 21 21 22 23 25 26 27 28 28 29 29 29 28 27 29 33 35 36 38 40 42 43 44 44 45 45 45 45
19 19 21 22 21 19 19 18 16 17 18 17 15 13 10 9 9 9 11 11 11 11 10 10 9 9 9 8 8 7 7 7 7 6 6 5 4 4 4 4 5 5 6 6 7 7 8 10 11 12 14 16 16 17 18 20 21 21 22 22 23 24 25 26 27 27 27 29 28 26 26 27 30 33 35 37 39 41 43 43 45 46 47 48 48
20 20 21 22 20 17 19 20 18 19 20 18 17 15 12 11 11 10 11 12 12 11 11 11 10 9 9 9 8 8 7 7 7 6 6 5 5 4 4 4 4 4 4 5 6 6 8 10 11 12 14 15 16 17 18 19 20 21 22 23 23 24 25 25 26 26 26 28 28 28 27 28 30 32 34 37 40 42 45 47 48 49 48 48 48
22 22 22 22 20 18 20 21 19 19 19 17 16 14 12 12 11 10 10 11 12 12 12 11 11 11 10 10 9 9 7 7 6 6 6 6 5 5 4 3 2 2 3 4 5 6 8 9 10 11 13 14 15 17 18 19 20 21 23 24 24 25 26 26 27 27 27 28 29 30 30 31 32 34 35 38 40 42 45 47 48 49 48 47 46
24 23 21 21 21 21 21 20 19 19 18 16 15 13 12 12 12 10 10 11 11 12 12 12 13 13 12 12 11 10 8 7 6 6 6 6 6 6 5 3 2 1 2 3 4 5 6 8 9 11 13 14 15 17 18 18 20 21 23 24 25 25 26 27 28 29 29 29 30 31 32 34 36 36 37 38 40 42 44 45 47 48 47 46 47
24 22 20 20 21 22 21 20 19 19 18 16 15 14 13 14 13 12 12 12 12 12 13 14 14 14 14 12 11 10 9 7 6 6 6 6 6 6 5 4 2 1 1 2 3 4 5 6 9 10 12 13 14 16 17 18 19 21 22 24 25 26 26 26 27 29 29 29 30 31 32 35 37 38 39 39 40 43 45 46 47 47 47 47 47
23 20 19 20 21 22 22 20 18 17 16 15 14 14 14 15 14 13 12 13 13 14 15 15 15 14 14 13 12 11 10 8 8 7 6 6 6 5 5 3 2 1 1 2 2 3 4 6 8 10 11 12 14 15 16 17 19 20 22 23 24 25 25 26 26 27 29 29 30 31 32 34 37 40 40 41 41 43 47 48 47 47 47 48 48
22 20 21 21 22 23 22 20 19 18 17 15 15 15 16 16 15 14 14 14 15 16 16 16 16 15 14 13 12 11 10 10 9 8 7 7 6 5 4 3 2 1 0 1 1 2 4 6 8 10 11 12 14 15 16 17 18 19 20 21 22 23 24 25 26 27 28 29 30 32 33 34 36 39 41 42 42 44 47 48 47 47 47 47 48
23 22 22 22 23 23 22 21 21 21 19 17 17 17 17 18 18 16 15 15 17 18 18 18 17 16 15 14 13 12 11 10 10 9 8 7 7 6 5 4 3 2 1 1 1 2 4 6 7 9 11 12 13 14 15 16 18 19 20 21 21 22 23 24 25 27 28 30 31 33 34 35 36 37 40 42 42 43 46 47 46 46 46 47 48
24 23 22 23 24 24 22 22 22 22 19 18 19 19 19 20 20 19 17 18 19 20 20 19 18 17 16 15 14 13 12 11 10 9 9 8 7 6 5 4 4 3 3 1 1 2 3 5 7 9 10 12 13 14 15 16 17 18 19 20 21 22 23 24 26 27 29 30 32 33 34 35 36 36 38 40 41 42 43 44 45 46 46 47 48
25 24 24 24 24 24 22 22 23 22 19 19 20 20 21 21 22 21 20 20 22 22 21 20 19 17 17 15 14 13 12 12 11 10 9 8 8 7 6 6 5 4 3 2 1 1 3 5 7 8 10 11 12 13 14 15 17 18 19 20 21 22 24 25 26 27 29 31 32 33 33 34 35 35 35 36 38 40 41 43 45 46 46 46 47
26 25 24 24 24 24 22 23 24 22 20 19 19 20 21 22 23 23 23 23 24 23 22 21 20 19 18 16 16 15 14 13 12 11 10 9 8 8 7 7 6 5 3 2 0 1 2 4 6 7 9 10 11 13 14 15 16 17 19 20 22 23 24 26 27 28 29 30 31 32 33 33 34 34 34 35 37 39 41 43 46 48 48 49 49
26 25 24 24 25 24 23 24 25 23 21 20 20 21 22 23 24 25 25 25 26 25 23 22 21 20 19 18 17 16 15 13 13 11 10 9 8 8 8 7 6 5 3 2 1 2 3 4 5 6 8 9 11 12 14 15 16 17 18 20 21 23 24 25 26 27 28 29 30 31 31 32 33 34 35 36 36 38 39 42 45 47 49 50 51
26 24 24 25 26 24 23 24 25 23 22 22 21 23 24 25 25 25 25 25 26 25 25 24 22 20 19 18 18 17 16 14 13 11 10 9 8 8 8 8 6 5 4 3 3 3 3 4 5 5 7 8 10 11 12 14 15 17 19 20 21 22 23 24 25 26 28 29 29 30 31 32 33 35 35 36 36 37 38 40 42 45 47 49 51
25 25 25 26 26 24 24 25 25 24 23 22 22 23 25 24 24 24 24 24 23 22 22 21 20 18 18 18 17 16 14 13 12 11 10 10 9 9 8 7 6 5 5 5 5 4 3 3 4 5 6 7 9 10 11 13 14 16 18 20 21 22 23 24 25 26 28 29 30 31 32 33 34 35 35 36 36 37 37 38 40 42 45 48 50
26 26 26 26 25 24 25 26 25 24 23 23 24 25 25 23 23 22 22 22 22 21 19 17 15 16 16 16 15 13 12 12 12 12 11 10 9 9 8 7 7 6 6 6 5 4 4 3 4 5 6 7 9 10 12 14 15 16 17 19 20 22 23 23 24 26 27 28 30 31 32 32 33 34 36 36 36 36 37 37 38 40 42 45 47
27 27 27 27 25 24 26 26 25 24 24 23 25 27 26 25 24 23 22 21 21 21 19 15 14 14 14 14 13 13 12 12 12 12 11 11 10 9 8 8 7 7 7 7 6 5 5 5 5 6 7 8 9 11 12 14 15 16 17 18 19 21 22 23 24 25 26 28 29 30 31 32 33 34 35 36 36 36 37 37 38 38 40 41 44
27 27 27 25 23 23 25 24 23 24 25 24 26 27 27 27 27 25 24 23 22 21 19 17 15 14 12 11 11 12 12 11 11 11 12 11 10 9 9 9 9 9 10 10 9 7 7 6 6 6 7 8 9 10 12 14 16 17 18 18 18 19 21 22 23 24 26 27 28 30 31 32 32 33 33 34 35 36 37 37 38 39 39 39 40
27 27 26 24 21 23 25 24 22 24 26 26 27 28 29 29 28 27 26 25 23 22 21 19 17 15 13 12 11 10 10 10 10 12 12 12 11 11 11 11 11 11 11 11 10 9 8 8 8 8 8 8 9 10 12 13 15 17 18 19 19 19 19 21 22 23 25 26 27 29 30 31 32 32 33 33 34 35 36 36 37 38 38 38 39
27 26 25 22 21 24 26 24 22 23 24 25 26 28 30 30 28 26 26 26 26 25 23 21 19 17 15 13 12 11 11 11 12 13 13 12 12 12 13 13 13 12 12 12 12 10 10 10 10 9 9 10 10 10 11 12 14 16 18 19 20 20 19 20 21 22 23 25 26 27 28 29 31 31 32 33 33 34 35 35 36 37 38 38 38
26 25 24 23 22 23 25 23 21 21 22 24 26 28 29 28 27 26 26 27 26 25 23 21 19 17 16 15 14 13 12 12 13 14 14 14 14 14 14 14 14 13 13 12 12 11 11 12 11 10 10 10 10 11 11 12 13 15 18 19 20 21 20 20 20 21 22 23 25 26 27 28 29 30 31 31 32 33 33 34 35 35 36 36 36
26 26 26 24 22 21 22 22 21 20 21 21 24 27 28 26 26 26 26 26 25 23 21 20 18 18 17 17 15 14 13 14 15 15 15 15 15 15 15 14 13 12 12 11 11 11 12 12 12 11 11 11 11 11 12 12 13 14 17 19 20 21 21 20 20 20 21 22 23 25 26 27 27 28 29 29 30 31 32 33 33 33 34 34 35
26 26 27 25 21 20 22 23 22 21 20 19 22 26 27 26 26 26 26 25 24 22 21 20 19 19 19 18 17 15 14 15 16 16 16 17 17 16 15 13 11 10 10 9 9 11 12 13 13 13 12 11 11 11 12 12 13 13 15 17 18 19 19 20 20 19 19 20 22 24 26 26 26 26 27 28 29 29 30 31 32 33 33 32 32
25 25 26 25 21 21 23 24 23 23 23 20 20 24 26 27 26 27 26 25 23 22 22 21 20 20 19 18 16 15 15 17 18 19 18 17 17 15 13 11 9 9 7 6 8 10 12 13 14 14 14 12 12 12 12 11 12 12 14 15 16 17 17 18 18 18 18 19 21 23 25 26 26 26 26 26 27 28 29 29 31 32 32 32 31
25 25 26 25 22 22 24 25 24 24 25 23 21 21 25 27 28 29 27 26 24 23 23 22 21 20 19 17 17 17 18 19 20 19 17 16 15 14 12 10 8 7 6 6 8 10 12 14 15 15 14 13 12 12 11 11 11 11 12 13 14 15 15 16 16 17 18 19 20 22 24 26 27 27 26 25 25 26 27 28 29 30 32 32 31
25 26 27 25 22 22 24 25 25 25 26 25 23 21 24 28 30 30 28 26 25 23 23 22 21 20 19 19 19 19 19 20 19 17 15 14 14 13 12 10 9 8 8 8 9 10 12 14 15 14 13 11 11 10 10 10 10 11 12 14 15 16 16 17 17 18 19 21 22 22 23 24 26 27 27 25 24 24 25 26 27 28 29 31 31
25 26 27 25 23 23 25 26 25 25 26 26 24 22 23 27 30 30 28 26 24 23 22 22 21 20 20 20 20 19 19 19 17 15 14 13 13 13 13 12 11 11 11 11 10 11 12 12 12 11 10 9 9 9 9 10 11 12 14 15 17 18 19 19 20 20 21 22 24 24 24 23 24 26 27 26 25 25 24 23 24 25 26 28 29
24 25 27 26 24 24 26 26 25 25 26 27 26 24 23 25 28 29 28 26 24 22 21 21 20 20 20 20 19 19 19 17 16 15 14 13 14 14 14 14 14 14 13 12 11 11 11 10 9 8 8 7 8 9 10 12 13 15 17 18 20 21 22 22 22 22 22 23 24 26 26 25 25 25 25 25 26 25 25 24 23 23 24 25 27
24 25 27 27 26 26 26 25 24 25 26 27 27 25 24 25 27 28 27 25 23 21 20 19 18 18 18 18 18 18 18 17 16 16 15 15 16 16 15 15 15 15 15 14 12 11 10 9 8 8 8 8 9 10 11 13 14 17 19 20 22 23 24 24 23 23 24 24 25 26 27 27 27 26 25 25 25 25 25 24 23 23 23 23 24
24 24 26 27 26 27 27 25 24 24 25 25 25 25 26 27 27 27 25 23 21 19 18 17 17 17 17 17 18 18 18 17 17 17 16 16 16 16 16 15 15 15 16 15 13 12 11 10 10 10 9 9 10 11 12 14 16 18 20 22 23 24 24 24 23 22 23 24 25 26 26 27 27 27 26 25 25 25 24 24 23 23 23 23 23
24 24 26 27 27 27 27 25 24 24 25 24 25 26 27 28 28 26 24 22 20 18 18 18 18 18 18 18 18 18 18 18 18 18 17 17 17 17 17 17 17 18 17 16 15 14 14 13 12 12 12 12 13 14 15 16 18 19 20 22 24 24 23 22 22 21 21 22 23 23 25 25 25 26 26 26 25 25 25 24 23 23 23 23 23
23 24 26 27 27 28 27 25 25 25 25 25 25 26 28 28 27 25 23 21 19 18 19 20 20 19 19 20 20 20 19 19 19 18 17 17 17 18 17 17 17 17 17 16 15 15 15 15 15 16 16 16 16 17 17 19 20 21 21 22 23 22 21 20 20 19 20 21 21 22 24 24 24 25 25 26 26 26 26 25 24 23 23 23 23
22 24 25 26 27 27 26 25 26 26 26 25 25 26 27 27 26 23 22 20 18 18 20 20 20 20 20 20 20 20 20 19 19 18 16 16 16 16 16 15 15 15 14 14 15 16 16 17 18 18 18 18 18 19 20 21 21 21 21 21 21 20 19 18 18 18 19 20 21 22 23 24 25 25 25 25 26 26 26 26 26 25 24 23 23
22 23 25 26 26 27 27 26 27 28 27 26 26 25 25 25 24 23 22 21 19 19 20 21 21 21 20 19 19 19 18 18 18 17 16 16 17 16 16 16 16 15 15 15 16 17 17 17 17 18 18 18 19 21 21 21 20 20 20 19 18 17 17 18 18 19 20 21 21 22 22 23 24 25 25 26 26 27 27 26 26 25 25 25 25
22 23 25 26 27 28 28 27 29 30 28 27 26 25 25 25 24 23 22 21 20 21 21 21 21 21 20 19 19 19 18 18 18 17 17 18 18 17 17 16 16 15 16 16 16 16 16 16 17 17 18 19 20 21 21 21 20 19 18 17 16 16 17 19 19 20 21 21 22 21 21 22 23 24 25 25 26 26 27 28 27 26 26 26 26
22 24 25 26 27 28 27 27 30 31 29 28 27 27 26 27 26 24 22 21 21 21 22 22 22 22 22 21 20 20 19 18 17 17 17 17 16 16 15 15 16 16 16 16 16 16 17 17 18 18 19 20 20 20 20 20 19 17 16 16 17 17 19 20 21 22 23 23 23 22 22 22 23 24 25 25 26 26 27 27 27 27 27 27 26
23 24 25 26 27 28 27 28 30 30 28 28 30 29 28 29 28 25 22 21 20 20 21 22 21 21 22 22 21 21 21 20 18 17 16 15 15 15 16 17 17 18 18 18 18 17 17 17 17 18 19 20 20 20 21 20 19 17 17 17 19 20 22 24 25 25 25 25 25 24 25 25 25 26 27 27 27 28 28 28 28 28 28 28 27
Wind_Direction
206 207 207 208 216 216 213 213 215 220 222 226 233 237 246 263 272 285 297 273 197 169 155 146 138 132 122 104 92 84 79 77 72 62 53 52 55 56 57 56 52 53 54 51 49 42 34 32 31 32 30 26 27 28 28 27 25 23 20 17 16 9 3 360 350 347 354 356 352 351 351 349 349 351 349 347 348 348 347 347 346 346 346 346 345
207 208 210 211 215 217 216 217 220 223 225 228 229 234 252 263 268 282 284 227 179 158 152 147 139 136 126 112 108 101 92 83 74 64 54 54 62 68 70 66 60 59 56 50 47 41 34 31 31 33 32 28 29 28 27 26 21 19 17 13 12 10 4 359 352 346 347 352 352 351 351 350 349 350 350 348 347 346 345 345 345 345 345 344 343
210 210 212 211 213 214 215 217 219 221 223 226 228 239 254 258 264 275 259 199 173 155 150 146 142 146 144 133 123 108 96 87 79 70 62 64 75 81 81 74 66 61 54 49 47 41 35 33 33 34 32 29 29 27 24 22 18 15 14 11 8 8 5 359 353 346 343 347 351 350 350 350 350 350 350 348 347 345 344 344 344 344 344 343 342
207 207 208 208 208 211 214 217 220 222 224 226 234 244 250 253 258 255 217 186 169 154 151 151 155 163 158 142 126 111 99 90 84 80 77 81 85 87 84 77 67 60 53 49 47 42 37 35 34 35 33 30 28 25 21 18 16 13 10 9 6 4 2 358 353 348 344 345 349 350 350 350 350 351 350 348 346 345 343 343 343 343 343 341 340
206 207 210 210 211 214 217 221 223 224 227 232 240 245 246 247 242 219 190 177 166 158 158 162 166 168 156 141 126 117 108 94 88 88 88 91 92 89 84 74 65 58 52 48 45 42 38 35 35 34 32 29 25 22 20 16 13 11 8 6 4 1 359 356 353 351 347 346 348 350 351 350 350 351 351 349 346 344 343 342 342 342 342 340 340
212 214 216 216 218 220 221 224 225 228 232 236 237 236 234 231 218 194 176 169 166 165 166 168 168 163 152 141 133 126 115 100 94 91 91 94 95 89 80 70 62 55 51 48 43 39 37 34 34 33 29 27 23 19 18 15 12 9 7 5 3 360 357 356 354 352 351 350 349 350 351 351 350 350 351 350 347 345 344 342 342 343 342 340 339
217 219 218 218 221 222 223 225 228 230 230 227 224 219 214 209 197 181 170 166 170 173 171 170 165 157 151 146 142 134 118 106 100 96 95 96 94 88 79 67 58 54 52 48 42 38 37 34 32 31 28 24 20 16 14 13 12 9 6 4 2 359 358 356 355 354 353 353 352 351 350 350 350 349 349 349 347 346 345 343 341 342 342 340 339
220 219 219 220 222 223 224 222 222 219 212 207 204 202 201 195 182 175 172 169 171 172 170 167 159 155 154 152 146 136 123 114 105 97 96 96 93 85 74 62 54 55 55 50 43 38 35 33 31 30 27 24 19 14 11 10 11 9 7 4 2 359 358 357 356 356 354 353 353 351 349 349 349 349 349 349 348 346 347 344 340 340 341 339 339
219 217 218 220 222 221 215 205 200 196 192 192 194 195 195 185 173 173 174 169 169 168 164 161 158 157 157 153 149 141 129 118 104 95 92 93 93 84 68 59 54 55 54 50 45 40 34 31 31 30 28 27 23 17 12 9 8 7 6 4 1 359 358 357 357 356 355 354 353 351 349 348 348 349 349 350 348 345 346 345 341 341 340 338 338
215 214 213 215 215 209 199 192 188 187 186 189 193 193 189 178 170 172 170 166 167 166 160 158 159 160 159 154 151 145 132 117 104 98 97 96 91 81 67 61 60 57 50 44 42 38 33 30 33 33 30 27 25 19 14 11 9 8 7 5 1 358 357 358 359 358 356 354 352 350 348 346 347 349 349 349 348 346 347 346 343 343 341 337 336
212 211 210 208 205 198 194 190 188 187 187 190 192 191 186 177 171 170 166 165 168 166 161 160 160 160 159 157 154 146 131 120 111 108 107 102 94 86 76 67 66 60 47 41 37 31 27 27 30 30 28 27 24 19 15 14 14 13 12 10 5 1 358 358 360 360 357 354 352 351 348 345 346 349 349 349 349 349 349 348 346 344 342 337 333
213 212 209 203 198 194 193 190 186 187 189 191 191 189 186 180 175 173 172 170 169 166 164 165 164 161 160 161 159 147 137 132 125 120 114 105 96 91 83 74 69 60 45 39 35 26 22 23 25 23 23 24 23 21 18 18 18 17 15 14 11 7 5 3 2 1 358 354 352 352 350 346 347 351 353 352 352 351 350 350 349 346 342 337 331
219 216 207 199 195 192 190 187 186 188 191 190 189 189 187 182 180 186 182 175 173 170 169 169 167 163 161 162 162 155 152 148 137 128 120 108 100 95 86 76 68 57 45 36 31 26 21 22 25 22 22 24 23 21 19 19 19 19 16 15 13 10 9 9 8 6 2 357 354 353 353 351 351 354 357 357 355 354 352 351 350 347 343 339 336
218 211 202 197 194 192 190 188 188 189 190 191 191 190 188 182 184 194 188 179 178 175 173 173 170 166 163 162 166 168 166 162 148 136 126 113 106 100 88 76 65 54 42 32 28 25 21 25 28 25 23 24 23 20 18 16 16 16 15 15 13 11 10 11 12 11 8 3 358 356 357 356 356 358 0 1 360 357 354 353 352 349 346 345 342
211 205 201 197 193 193 191 188 188 191 195 197 194 189 188 187 192 195 187 183 184 179 176 177 174 171 167 164 171 178 175 169 158 144 133 123 116 110 95 78 64 51 37 30 26 21 20 27 29 23 20 21 20 17 14 12 11 11 11 12 12 11 11 12 13 13 10 7 3 1 360 359 359 1 3 5 4 0 358 357 356 354 352 350 348
209 207 203 197 192 195 195 190 190 197 201 200 192 183 182 189 197 196 189 188 187 182 179 179 176 176 172 169 174 182 180 174 163 149 138 132 125 117 107 87 66 47 32 26 21 16 22 29 26 18 16 16 15 14 11 8 6 6 7 10 11 11 12 13 15 14 12 10 7 5 2 -0 1 4 7 8 7 4 2 2 1 360 356 353 350
211 209 204 197 194 200 202 198 198 200 201 198 191 184 180 183 192 195 193 192 189 184 183 180 177 180 178 175 176 179 182 177 165 153 143 139 136 128 118 100 72 42 25 20 12 13 24 26 19 13 12 13 12 11 10 7 5 4 5 9 10 10 11 13 14 16 16 14 12 9 6 3 3 6 11 13 11 9 7 5 4 2 359 354 350
212 210 205 200 199 203 206 206 204 201 198 195 190 188 186 188 194 194 192 195 192 187 185 183 181 181 180 179 176 175 182 183 171 159 150 143 141 139 132 116 91 41 17 12 7 15 25 19 11 9 10 10 10 11 10 7 6 6 6 8 10 10 11 12 12 14 16 16 15 14 11 9 7 8 12 15 15 14 12 9 6 4 1 356 351
213 212 207 203 203 204 205 207 207 201 197 192 187 190 194 194 197 195 192 195 194 190 188 188 187 185 181 180 175 172 180 186 181 170 157 147 143 143 139 129 122 69 7 6 5 16 22 11 4 5 7 8 10 11 11 9 7 8 8 8 9 11 12 12 10 11 13 15 15 14 13 12 11 11 12 15 17 17 17 14 11 8 4 360 357
212 211 208 204 205 204 203 207 207 201 196 190 186 193 201 199 199 201 197 193 194 195 192 190 191 188 182 178 175 173 177 183 185 180 166 154 146 143 138 134 138 133 16 6 1 8 9 2 0 3 6 10 12 13 12 11 10 10 9 8 9 11 12 13 11 10 11 13 13 13 13 13 13 12 13 14 16 18 20 19 16 13 9 5 4
209 210 211 207 205 204 203 206 205 198 194 192 192 199 204 203 205 207 203 197 195 196 195 191 191 190 183 178 178 177 177 181 184 182 174 163 153 146 142 140 142 127 35 354 347 356 357 356 1 6 9 12 15 15 14 12 12 11 10 9 8 9 10 11 11 11 11 12 13 13 13 13 13 13 13 13 15 19 21 21 20 19 17 13 9
211 212 212 208 205 204 205 205 201 195 193 196 201 204 204 207 212 212 208 204 200 198 196 192 189 188 185 182 182 182 181 183 183 179 174 168 160 155 152 149 148 140 116 311 330 354 358 359 5 9 11 14 16 16 14 12 12 11 9 8 7 7 8 9 10 11 12 12 13 13 12 13 13 13 13 13 15 18 20 21 22 22 23 22 17
212 213 210 206 206 206 206 204 199 194 192 195 204 207 205 208 213 213 210 208 203 199 197 193 189 188 188 186 184 183 184 186 183 178 176 171 165 163 163 160 161 171 193 224 343 8 4 5 10 11 12 13 15 16 13 11 11 10 9 8 6 5 7 8 9 11 12 13 14 13 12 12 12 12 12 12 13 16 19 20 21 23 24 25 25
213 211 207 206 206 207 208 206 201 196 193 196 204 207 207 210 213 212 210 209 205 200 197 193 190 189 190 190 189 186 186 187 184 180 178 175 170 167 166 170 176 184 190 185 66 30 12 9 12 12 11 11 13 14 12 10 10 10 9 8 7 7 7 7 9 10 11 13 14 14 12 11 11 11 11 12 12 14 17 18 19 21 23 25 27
212 209 207 206 206 207 209 207 202 196 193 199 207 209 209 211 212 210 208 208 205 200 197 194 192 191 193 193 191 190 190 189 186 183 181 180 176 172 171 176 183 186 180 168 111 34 19 12 11 11 8 7 9 10 10 9 9 8 7 6 6 7 7 7 8 9 11 13 13 13 12 11 12 12 11 11 12 13 15 17 19 20 22 24 27
213 211 209 207 206 209 210 205 200 194 193 201 212 216 215 214 211 207 206 206 204 200 197 195 193 192 194 194 192 193 192 190 188 186 184 184 182 178 178 182 184 182 174 172 180 8 10 8 7 8 4 1 2 4 5 6 6 5 4 3 4 5 5 6 7 8 10 12 12 11 11 11 12 13 13 12 14 14 14 16 18 19 20 22 24
215 212 208 205 207 210 211 204 197 193 195 202 211 218 219 215 209 206 205 204 200 197 196 196 195 194 195 194 194 195 193 191 191 189 188 188 188 185 186 188 186 182 184 203 257 323 348 356 0 1 358 355 355 357 358 359 -0 1 2 1 1 2 3 4 5 6 8 10 10 10 10 10 11 13 15 14 14 14 14 14 16 18 20 21 22
216 213 209 205 207 210 211 207 199 194 199 206 210 213 213 210 206 206 207 206 201 197 195 196 198 198 197 197 197 196 194 194 193 192 191 192 193 195 196 195 193 194 207 233 261 291 317 336 344 348 349 348 347 349 352 354 356 358 -0 1 0 0 1 1 3 4 5 6 7 7 8 9 10 12 14 16 15 14 14 14 15 17 19 22 22
216 212 208 205 208 211 210 207 203 200 203 208 210 210 209 208 206 207 208 209 206 202 199 199 199 200 202 202 200 198 196 196 194 195 197 197 197 203 204 202 204 209 224 242 253 266 286 309 324 332 337 336 336 340 346 351 355 357 358 359 359 359 359 359 0 2 3 3 4 5 6 8 9 10 12 15 16 14 13 14 15 16 18 20 22
214 211 208 207 211 212 208 205 205 204 205 208 207 206 207 207 207 208 209 209 207 205 206 206 206 206 206 204 199 195 195 198 200 201 203 203 203 206 207 207 210 214 226 239 245 256 275 293 305 317 325 328 333 340 345 348 352 355 357 358 358 357 358 358 359 0 2 2 1 2 3 5 7 8 9 12 14 15 14 13 14 16 17 19 20
216 212 209 209 213 212 206 205 207 206 207 208 206 205 204 202 202 203 206 206 205 205 205 203 202 204 204 202 199 197 198 201 204 207 209 209 208 211 213 214 216 221 231 243 250 261 276 288 298 309 319 327 334 342 346 347 348 350 352 355 356 356 356 357 357 358 359 0 0 0 1 3 5 6 8 9 11 14 14 13 13 15 17 19 18
221 216 210 211 216 213 206 207 211 210 208 208 208 206 203 199 197 197 198 201 204 205 202 196 192 191 191 194 199 205 208 210 212 216 219 218 216 219 223 226 230 237 244 252 259 265 274 286 298 308 316 325 334 342 347 348 347 346 347 349 351 353 353 353 355 356 356 358 359 359 360 1 2 4 5 7 9 11 12 13 13 13 14 17 18
224 220 213 211 215 212 206 208 213 213 210 210 209 207 204 201 198 197 197 200 203 202 200 197 195 193 192 196 204 211 216 221 225 226 228 228 227 229 232 234 239 245 250 255 261 266 275 287 298 308 313 318 327 336 343 347 347 345 344 344 344 347 348 349 351 353 354 355 356 356 357 358 360 1 2 4 7 9 10 12 12 12 12 13 16
224 223 218 214 216 213 209 208 211 213 214 215 212 208 206 204 203 203 202 201 202 201 201 200 200 200 201 203 210 215 220 226 230 230 231 232 232 235 238 239 242 246 251 258 265 271 277 284 295 307 314 317 322 329 336 343 346 345 344 344 343 343 344 346 348 350 352 353 354 354 354 355 356 358 -0 1 4 6 9 11 11 12 12 12 12
225 223 219 217 219 218 211 206 208 212 216 218 215 210 207 207 208 209 207 204 203 204 206 206 206 207 208 210 214 219 223 228 231 232 232 233 235 237 240 241 243 248 253 260 268 275 278 282 290 301 311 317 322 326 329 335 341 343 344 345 345 346 345 345 345 347 349 350 350 350 351 351 352 355 357 359 1 3 6 9 10 10 11 11 11
225 221 217 215 219 220 212 205 206 210 216 219 218 214 212 214 215 213 210 209 210 212 214 215 213 213 214 215 218 222 225 229 231 232 233 235 238 240 242 243 246 250 255 262 270 276 279 284 289 296 303 313 320 323 324 328 334 340 343 344 346 348 348 347 347 348 350 350 350 349 348 348 348 350 353 356 359 0 2 5 8 9 10 10 10
226 221 217 215 219 220 210 203 202 205 211 216 218 216 218 220 220 216 214 215 218 220 221 220 219 219 219 220 221 225 228 230 231 231 232 234 238 241 243 243 244 247 255 265 272 276 280 283 287 290 294 303 313 318 319 323 328 336 341 343 346 348 349 350 350 351 352 354 354 352 350 348 345 346 349 352 356 358 359 1 3 6 9 10 10
227 224 219 217 221 218 206 199 198 201 205 209 212 216 221 223 221 218 219 221 224 224 223 224 226 228 228 227 227 231 234 233 232 232 232 234 238 241 240 236 237 244 259 274 277 278 281 281 282 284 288 295 305 311 315 319 325 332 338 342 345 348 349 350 351 351 351 353 356 355 354 351 347 344 346 348 351 355 358 359 -0 2 5 8 10
228 225 220 220 224 218 204 197 198 201 202 203 205 210 218 221 219 218 221 225 227 227 228 229 233 236 237 236 236 237 237 235 233 233 233 235 238 236 231 229 236 250 271 287 285 281 281 280 278 279 281 287 296 303 308 314 320 327 333 337 340 344 346 346 347 347 346 347 351 353 354 354 351 348 345 345 347 351 355 357 359 360 1 4 7
228 223 218 219 222 216 202 197 201 203 203 204 204 206 213 218 219 219 221 225 228 232 233 235 239 245 247 244 240 239 239 237 235 234 233 233 231 229 230 237 249 261 277 289 290 288 287 284 279 275 274 279 289 297 302 309 315 322 327 330 331 334 337 338 338 339 339 339 342 346 349 352 353 352 349 346 345 347 350 354 357 358 359 360 2
229 222 218 219 220 212 201 200 206 208 206 206 208 208 211 216 218 219 222 226 231 235 238 241 248 255 253 244 238 236 236 235 234 233 232 231 231 234 241 250 257 264 273 282 287 290 291 288 280 271 267 273 283 291 297 303 310 315 318 320 321 323 325 327 328 329 330 332 334 337 340 344 348 351 351 349 346 345 346 349 352 355 356 357 359
232 223 219 219 218 209 201 202 208 209 207 208 211 211 211 212 215 218 222 227 232 237 242 248 255 254 244 233 227 226 227 227 228 231 235 239 241 244 249 255 261 265 269 275 280 282 281 279 271 262 263 274 285 292 297 303 309 313 315 316 317 318 318 320 321 322 323 323 325 328 331 335 338 343 347 348 347 346 345 345 346 349 352 354 355
233 225 221 221 218 209 203 204 208 209 208 210 213 213 211 209 212 217 223 229 233 238 244 249 248 239 228 221 218 220 223 225 228 234 241 247 249 250 253 258 263 265 266 269 272 270 266 265 261 258 264 277 286 292 298 304 309 313 315 316 317 317 317 317 318 320 320 320 319 321 323 326 329 332 337 341 343 345 346 345 343 344 346 349 351
231 225 223 223 219 211 207 207 210 211 210 211 213 213 211 209 211 217 224 228 231 236 240 239 233 226 222 220 220 222 227 232 237 243 249 252 253 255 258 261 265 266 266 267 266 262 260 262 262 262 269 278 285 291 297 301 305 309 311 312 314 315 315 315 315 316 317 318 319 321 321 321 322 324 327 331 334 337 341 343 343 342 342 344 346
229 225 223 223 219 213 209 210 212 212 211 212 212 211 209 209 212 218 224 229 232 234 233 230 226 223 223 225 227 231 235 240 243 248 252 254 257 261 265 267 268 268 267 266 263 258 258 261 264 268 273 280 285 290 293 297 302 305 307 309 311 313 314 314 313 312 312 313 316 319 320 320 320 321 322 323 325 327 331 336 339 341 341 341 342
230 225 224 223 219 214 211 211 210 208 207 209 210 209 209 210 214 219 224 227 229 229 228 229 230 230 230 233 236 238 240 243 246 250 254 259 263 266 268 269 269 267 265 261 256 254 258 264 269 274 278 281 284 288 293 297 300 302 303 305 308 311 314 315 314 313 313 314 316 317 317 317 318 318 319 320 320 320 322 325 328 333 336 337 339
231 227 226 224 220 215 213 210 206 202 201 203 206 208 210 213 216 219 221 223 226 228 230 233 235 236 235 236 238 239 241 245 250 254 257 261 265 266 266 266 266 264 259 254 252 255 261 267 271 275 278 280 283 289 295 298 300 301 302 303 304 308 315 318 317 318 319 320 321 321 321 321 321 320 319 318 317 317 318 318 319 322 325 328 331
231 229 227 225 219 215 213 209 202 199 200 202 204 209 213 216 217 218 218 222 228 232 233 235 238 238 236 236 236 239 243 249 254 257 257 259 264 267 267 266 266 264 261 258 259 261 265 267 270 274 276 279 284 290 295 298 300 301 301 300 301 307 316 320 320 320 321 320 320 320 320 322 323 322 320 319 317 316 316 316 316 316 316 317 320
230 228 227 225 218 214 214 211 204 201 202 204 206 209 213 213 213 213 215 222 232 237 237 238 240 239 237 237 239 242 247 254 258 260 259 261 266 270 270 268 265 264 263 263 263 263 264 266 269 273 277 282 288 292 294 296 299 301 299 296 297 303 310 312 313 314 315 316 316 314 312 312 314 315 316 317 316 315 315 314 314 314 312 311 313
230 228 227 224 217 213 215 215 209 204 203 205 206 209 210 208 207 209 217 228 238 242 240 241 242 241 241 242 242 243 248 254 260 263 265 266 267 267 266 264 263 263 264 264 264 265 267 269 272 277 283 288 291 293 293 294 296 297 294 291 292 296 301 303 305 307 309 309 309 306 304 303 304 306 308 310 311 311 311 311 311 311 309 309 308
230 227 226 224 219 215 217 218 213 208 205 205 207 209 210 207 206 211 224 237 245 245 242 242 244 246 246 246 246 247 250 256 262 266 266 264 262 262 263 265 266 267 268 269 269 270 272 274 277 282 286 288 289 289 288 287 287 286 284 285 288 293 298 301 303 305 306 306 306 304 302 301 300 300 302 303 304 305 306 306 307 307 306 305 304
Height
1525 1527 1529 1531 1533 1534 1535 1536 1537 1538 1539 1540 1542 1543 1544 1546 1546 1547 1548 1549 1549 1550 1550 1551 1551 1552 1552 1552 1553 1552 1552 1552 1552 1552 1552 1551 1551 1552 1552 1553 1553 1553 1553 1553 1552 1552 1551 1551 1550 1550 1550 1549 1548 1547 1546 1545 1544 1543 1542 1541 1540 1538 1535 1534 1531 1526 1524 1523 1520 1517 1514 1511 1508 1505 1501 1498 1495 1492 1489 1487 1484 1480 1477 1474 1471
1524 1526 1528 1530 1532 1533 1534 1535 1536 1537 1538 1539 1541 1542 1544 1545 1546 1546 1548 1548 1549 1549 1550 1551 1551 1552 1552 1553 1553 1553 1553 1553 1552 1552 1552 1552 1553 1553 1554 1554 1554 1554 1554 1553 1553 1552 1552 1552 1551 1551 1550 1550 1549 1547 1546 1546 1545 1544 1543 1541 1540 1539 1536 1533 1530 1526 1522 1520 1518 1515 1513 1510 1506 1503 1500 1496 1493 1490 1486 1484 1480 1477 1474 1471 1467
1523 1525 1527 1528 1530 1532 1533 1534 1535 1536 1538 1539 1540 1542 1543 1544 1545 1546 1547 1548 1548 1549 1550 1550 1551 1551 1552 1553 1553 1553 1553 1553 1553 1553 1553 1553 1554 1554 1554 1555 1555 1554 1554 1554 1553 1553 1553 1553 1552 1551 1551 1550 1549 1548 1547 1546 1545 1544 1543 1542 1540 1538 1537 1534 1531 1527 1522 1518 1517 1513 1510 1508 1505 1502 1499 1496 1492 1488 1484 1481 1478 1474 1471 1468 1464
1522 1524 1526 1528 1529 1531 1532 1533 1534 1535 1537 1538 1540 1542 1543 1544 1545 1546 1547 1547 1548 1548 1549 1550 1551 1552 1553 1553 1553 1553 1553 1553 1554 1554 1554 1554 1554 1555 1555 1555 1555 1555 1555 1554 1554 1554 1554 1553 1553 1552 1552 1551 1550 1549 1548 1547 1546 1544 1543 1542 1540 1538 1537 1535 1532 1528 1523 1518 1516 1514 1510 1507 1504 1501 1497 1493 1490 1487 1483 1479 1475 1471 1468 1465 1461
1522 1523 1525 1527 1529 1530 1531 1532 1534 1535 1537 1538 1540 1541 1542 1543 1544 1545 1546 1547 1547 1548 1549 1550 1551 1552 1552 1553 1553 1553 1553 1554 1554 1554 1554 1555 1555 1555 1555 1556 1556 1556 1556 1555 1555 1555 1554 1554 1553 1552 1552 1551 1550 1550 1549 1547 1546 1545 1543 1542 1540 1538 1536 1534 1531 1528 1524 1519 1515 1513 1510 1507 1503 1501 1497 1492 1487 1483 1479 1475 1472 1468 1464 1460 1457
1521 1523 1525 1526 1528 1529 1530 1531 1533 1534 1536 1538 1539 1540 1541 1543 1544 1545 1546 1546 1547 1548 1549 1550 1551 1552 1552 1553 1553 1553 1554 1554 1555 1555 1555 1555 1555 1556 1556 1556 1556 1556 1556 1556 1556 1555 1555 1554 1553 1553 1552 1552 1551 1550 1549 1548 1546 1545 1543 1541 1540 1538 1535 1533 1530 1527 1524 1520 1516 1512 1509 1506 1502 1499 1496 1492 1486 1480 1475 1469 1467 1465 1461 1456 1452
1520 1522 1524 1525 1527 1528 1529 1530 1532 1534 1535 1537 1538 1540 1541 1542 1544 1545 1545 1546 1547 1548 1549 1550 1551 1551 1552 1553 1553 1554 1554 1554 1555 1555 1555 1555 1556 1556 1557 1557 1557 1557 1557 1556 1556 1556 1555 1554 1554 1553 1553 1552 1551 1550 1549 1548 1547 1545 1543 1541 1539 1537 1535 1532 1529 1526 1523 1520 1516 1512 1508 1506 1502 1498 1495 1492 1487 1482 1475 1467 1460 1459 1458 1454 1449
1519 1521 1523 1524 1525 1526 1528 1530 1531 1533 1534 1536 1538 1539 1541 1542 1543 1544 1545 1546 1547 1548 1549 1550 1550 1551 1552 1553 1554 1554 1554 1555 1555 1555 1555 1556 1556 1557 1557 1557 1558 1558 1557 1557 1557 1556 1556 1555 1555 1554 1554 1553 1552 1551 1549 1548 1547 1545 1544 1542 1539 1537 1534 1531 1529 1526 1523 1519 1516 1513 1509 1505 1502 1498 1494 1489 1484 1479 1476 1470 1462 1456 1452 1450 1447
1519 1520 1522 1523 1524 1525 1527 1529 1530 1532 1534 1536 1537 1539 1540 1542 1543 1544 1545 1546 1547 1548 1549 1550 1550 1551 1552 1553 1554 1554 1555 1555 1555 1555 1556 1556 1557 1557 1558 1558 1558 1558 1558 1557 1557 1557 1556 1556 1556 1555 1555 1554 1553 1551 1550 1549 1547 1545 1544 1542 1539 1537 1534 1532 1529 1525 1522 1519 1516 1512 1509 1505 1501 1497 1492 1488 1484 1479 1475 1471 1464 1457 1451 1446 1444
1518 1519 1521 1522 1523 1525 1527 1528 1530 1532 1533 1535 1537 1538 1540 1542 1543 1544 1545 1546 1547 1548 1549 1550 1550 1551 1552 1553 1554 1554 1554 1555 1555 1556 1556 1557 1557 1558 1558 1558 1558 1558 1558 1558 1557 1557 1557 1557 1556 1556 1555 1554 1553 1552 1551 1550 1548 1546 1544 1542 1540 1537 1534 1532 1529 1526 1523 1519 1516 1513 1509 1505 1502 1498 1494 1489 1485 1480 1474 1469 1462 1456 1449 1441 1436
1517 1518 1519 1521 1522 1524 1526 1528 1529 1531 1533 1535 1537 1538 1540 1541 1543 1544 1545 1546 1547 1548 1549 1550 1550 1551 1552 1553 1553 1554 1554 1555 1556 1556 1557 1558 1558 1558 1559 1559 1559 1559 1558 1558 1558 1557 1557 1557 1557 1556 1555 1554 1553 1552 1551 1551 1549 1548 1546 1544 1542 1539 1535 1532 1529 1527 1524 1520 1517 1514 1510 1506 1502 1499 1495 1489 1484 1480 1474 1469 1463 1456 1449 1441 1434
1515 1516 1517 1518 1520 1523 1525 1527 1529 1531 1533 1535 1536 1538 1540 1541 1542 1544 1545 1546 1547 1548 1549 1550 1550 1551 1552 1553 1553 1554 1555 1556 1556 1557 1557 1558 1558 1559 1559 1559 1559 1559 1559 1558 1558 1558 1558 1557 1557 1556 1555 1554 1554 1553 1552 1551 1550 1549 1547 1545 1543 1541 1538 1534 1531 1528 1525 1521 1518 1515 1511 1507 1503 1499 1494 1488 1483 1479 1474 1469 1464 1458 1452 1446 1439
1513 1514 1514 1516 1518 1521 1523 1526 1528 1530 1532 1534 1535 1537 1539 1540 1542 1544 1545 1546 1547 1547 1548 1550 1550 1551 1552 1553 1554 1554 1555 1556 1557 1557 1558 1558 1558 1559 1559 1559 1559 1559 1559 1558 1558 1558 1558 1557 1557 1556 1555 1555 1554 1553 1552 1552 1551 1550 1548 1546 1544 1542 1539 1537 1533 1530 1527 1523 1519 1516 1513 1509 1504 1500 1496 1490 1484 1478 1472 1468 1464 1459 1453 1448 1442
1511 1512 1514 1515 1517 1519 1521 1524 1527 1529 1531 1533 1534 1536 1538 1540 1541 1543 1544 1545 1546 1547 1548 1549 1550 1551 1552 1553 1554 1555 1555 1556 1557 1557 1558 1558 1559 1559 1559 1559 1559 1559 1559 1559 1559 1559 1558 1558 1557 1556 1556 1555 1555 1554 1553 1552 1551 1550 1548 1546 1544 1542 1540 1537 1534 1531 1528 1525 1521 1517 1514 1511 1506 1502 1497 1492 1486 1479 1473 1467 1463 1459 1454 1448 1442
1510 1511 1512 1514 1516 1518 1520 1524 1526 1529 1530 1532 1532 1534 1537 1539 1541 1543 1544 1545 1546 1547 1548 1549 1550 1551 1552 1553 1554 1555 1556 1556 1557 1558 1558 1558 1559 1559 1559 1559 1559 1559 1559 1559 1559 1559 1559 1558 1557 1556 1556 1556 1555 1554 1553 1552 1551 1549 1548 1546 1545 1542 1540 1537 1534 1531 1528 1525 1522 1518 1515 1512 1508 1503 1498 1493 1488 1482 1477 1471 1465 1459 1453 1446 1440
1508 1509 1511 1513 1515 1518 1520 1523 1525 1527 1529 1530 1531 1533 1536 1539 1541 1542 1543 1545 1545 1546 1547 1549 1550 1551 1552 1553 1554 1555 1556 1556 1557 1557 1558 1558 1559 1559 1559 1559 1559 1559 1560 1560 1560 1559 1559 1558 1557 1557 1557 1556 1556 1555 1553 1552 1551 1549 1548 1546 1544 1542 1540 1537 1534 1532 1529 1526 1523 1520 1517 1513 1509 1505 1499 1494 1488 1482 1477 1471 1464 1457 1450 1444 1437
1506 1508 1510 1512 1514 1517 1519 1522 1524 1525 1527 1529 1531 1532 1535 1537 1540 1541 1543 1544 1545 1546 1547 1548 1549 1551 1552 1553 1554 1555 1556 1556 1557 1557 1558 1558 1558 1559 1559 1559 1559 1560 1560 1560 1560 1559 1559 1558 1558 1558 1557 1557 1556 1555 1554 1552 1551 1549 1547 1546 1544 1542 1540 1537 1535 1533 1529 1526 1524 1520 1517 1514 1509 1505 1500 1494 1488 1482 1474 1467 1461 1455 1449 1442 1436
1505 1506 1508 1511 1513 1514 1516 1519 1522 1523 1525 1528 1530 1532 1534 1536 1539 1541 1542 1543 1544 1545 1546 1548 1549 1551 1552 1553 1554 1555 1556 1556 1556 1557 1557 1558 1558 1559 1559 1559 1559 1560 1560 1560 1560 1559 1559 1559 1558 1558 1558 1557 1556 1555 1554 1552 1551 1549 1547 1545 1543 1541 1539 1536 1534 1532 1529 1526 1524 1520 1517 1513 1508 1504 1499 1494 1489 1482 1475 1468 1462 1456 1450 1444 1438
1503 1505 1507 1510 1512 1514 1516 1518 1521 1522 1524 1526 1528 1530 1533 1535 1538 1540 1541 1543 1544 1545 1546 1547 1549 1550 1551 1553 1553 1554 1555 1556 1556 1556 1557 1557 1558 1558 1558 1559 1559 1560 1560 1560 1560 1560 1559 1559 1559 1558 1558 1557 1556 1555 1554 1552 1550 1548 1546 1544 1542 1540 1538 1535 1532 1530 1527 1525 1522 1519 1515 1511 1507 1503 1498 1494 1489 1484 1478 1471 1465 1458 1451 1445 1439
1502 1505 1507 1509 1511 1513 1515 1517 1519 1521 1523 1525 1527 1530 1532 1535 1537 1539 1540 1542 1543 1544 1546 1547 1549 1550 1551 1552 1553 1553 1554 1555 1555 1556 1556 1557 1557 1558 1558 1559 1559 1560 1560 1560 1560 1560 1560 1560 1559 1559 1558 1557 1556 1555 1554 1552 1550 1548 1546 1544 1542 1539 1537 1535 1532 1529 1527 1524 1521 1518 1514 1511 1506 1502 1498 1494 1489 1484 1478 1472 1466 1460 1454 1448 1442
1502 1505 1507 1508 1510 1512 1515 1516 1518 1520 1523 1525 1527 1529 1531 1534 1536 1538 1540 1541 1542 1544 1545 1547 1548 1549 1550 1551 1552 1553 1554 1554 1555 1556 1556 1556 1557 1557 1558 1558 1559 1559 1560 1560 1560 1560 1560 1560 1560 1559 1558 1557 1556 1555 1554 1552 1550 1548 1546 1544 1542 1539 1537 1535 1533 1530 1527 1524 1521 1518 1514 1510 1506 1502 1497 1493 1489 1484 1478 1473 1468 1462 1456 1450 1443
1501 1503 1505 1507 1509 1511 1513 1515 1516 1519 1521 1524 1526 1528 1530 1533 1535 1537 1539 1540 1542 1543 1545 1546 1547 1548 1549 1550 1551 1552 1553 1554 1555 1555 1556 1556 1556 1557 1558 1558 1559 1559 1559 1560 1560 1560 1560 1560 1560 1559 1558 1557 1556 1555 1553 1552 1550 1549 1547 1545 1542 1540 1538 1536 1533 1531 1528 1524 1521 1517 1513 1509 1505 1501 1497 1493 1488 1484 1478 1474 1470 1465 1460 1454 1447
1499 1501 1503 1506 1508 1510 1512 1514 1516 1517 1519 1522 1525 1527 1529 1532 1534 1536 1538 1539 1541 1542 1544 1545 1546 1547 1548 1549 1550 1552 1553 1553 1554 1555 1555 1556 1556 1557 1557 1558 1558 1559 1559 1560 1560 1560 1560 1560 1559 1559 1558 1557 1556 1555 1553 1552 1550 1549 1547 1545 1543 1541 1539 1536 1534 1531 1528 1524 1520 1517 1513 1509 1505 1501 1497 1493 1488 1484 1480 1475 1471 1467 1462 1456 1451
1498 1500 1502 1504 1506 1508 1511 1513 1515 1517 1518 1521 1524 1526 1528 1531 1532 1534 1537 1538 1540 1541 1543 1544 1545 1546 1547 1549 1550 1551 1552 1553 1554 1554 1555 1555 1556 1556 1557 1558 1558 1559 1559 1559 1560 1560 1560 1560 1559 1558 1557 1556 1556 1554 1553 1552 1550 1548 1547 1545 1543 1541 1539 1536 1533 1530 1527 1524 1520 1516 1513 1509 1506 1502 1498 1495 1490 1486 1483 1478 1473 1468 1463 1458 1452
1496 1498 1500 1502 1505 1507 1509 1511 1514 1516 1517 1520 1522 1525 1527 1529 1531 1533 1535 1537 1538 1540 1541 1543 1544 1545 1547 1548 1549 1550 1551 1552 1553 1553 1554 1555 1555 1556 1557 1557 1558 1559 1559 1559 1559 1559 1559 1559 1559 1558 1557 1556 1555 1554 1553 1552 1550 1548 1546 1545 1543 1541 1538 1536 1533 1530 1527 1524 1520 1517 1514 1510 1507 1504 1500 1497 1493 1488 1484 1479 1474 1469 1464 1459 1454
1494 1496 1499 1501 1504 1506 1508 1510 1512 1514 1516 1519 1521 1524 1526 1528 1529 1531 1533 1535 1537 1539 1540 1542 1543 1544 1546 1547 1548 1549 1550 1551 1552 1553 1554 1554 1555 1555 1556 1557 1558 1558 1558 1558 1559 1559 1559 1558 1558 1557 1556 1556 1555 1554 1552 1551 1550 1548 1546 1544 1542 1540 1538 1535 1533 1530 1527 1524 1521 1518 1515 1511 1508 1505 1502 1498 1493 1489 1484 1479 1474 1469 1464 1458 1453
1492 1495 1497 1500 1503 1505 1507 1509 1511 1513 1515 1517 1519 1522 1524 1526 1528 1530 1531 1533 1535 1537 1539 1540 1541 1543 1544 1546 1547 1548 1549 1550 1551 1552 1553 1554 1554 1555 1556 1556 1557 1557 1557 1558 1558 1558 1558 1558 1557 1557 1556 1555 1554 1553 1552 1551 1549 1548 1546 1544 1542 1540 1537 1535 1533 1530 1527 1524 1522 1519 1516 1513 1509 1506 1502 1498 1493 1489 1485 1481 1476 1471 1465 1460 1454
1491 1493 1496 1498 1500 1503 1506 1508 1510 1512 1514 1516 1518 1520 1522 1524 1526 1528 1530 1532 1533 1535 1537 1538 1540 1542 1543 1545 1546 1547 1548 1550 1551 1552 1552 1553 1554 1554 1555 1556 1556 1556 1557 1557 1557 1557 1557 1557 1557 1556 1556 1555 1554 1553 1552 1550 1549 1547 1545 1543 1542 1540 1538 1536 1533 1531 1528 1525 1522 1520 1516 1513 1509 1505 1502 1498 1494 1490 1486 1482 1478 1473 1468 1463 1457
1490 1492 1494 1497 1499 1501 1504 1506 1509 1511 1513 1515 1517 1519 1521 1523 1525 1527 1530 1532 1534 1535 1537 1538 1540 1541 1543 1544 1545 1547 1548 1549 1550 1551 1551 1552 1553 1554 1555 1555 1555 1556 1556 1556 1556 1557 1556 1556 1556 1555 1555 1554 1553 1552 1551 1550 1548 1546 1545 1543 1541 1539 1537 1535 1533 1531 1528 1525 1522 1519 1516 1513 1509 1506 1502 1499 1495 1491 1487 1484 1480 1475 1471 1466 1461
1488 1490 1492 1495 1497 1499 1501 1504 1507 1510 1512 1514 1516 1519 1521 1523 1525 1527 1530 1532 1534 1536 1537 1539 1541 1542 1543 1544 1545 1546 1547 1548 1549 1550 1551 1551 1552 1553 1554 1554 1554 1555 1555 1556 1556 1556 1555 1555 1555 1555 1554 1553 1552 1551 1550 1548 1547 1546 1544 1542 1541 1539 1537 1535 1533 1530 1528 1525 1522 1519 1516 1513 1509 1506 1502 1499 1495 1492 1489 1485 1481 1477 1473 1468 1464
1486 1488 1490 1493 1496 1498 1500 1504 1506 1508 1510 1512 1515 1517 1519 1521 1524 1526 1529 1531 1533 1535 1537 1539 1540 1541 1542 1543 1544 1545 1546 1547 1548 1549 1550 1550 1551 1552 1553 1553 1554 1554 1555 1555 1555 1555 1555 1555 1554 1554 1553 1552 1551 1550 1549 1547 1546 1545 1543 1542 1540 1538 1536 1534 1532 1530 1528 1525 1522 1520 1516 1513 1510 1506 1503 1500 1496 1493 1490 1486 1483 1479 1475 1471 1467
1484 1486 1489 1492 1495 1497 1500 1503 1505 1507 1509 1511 1514 1516 1518 1520 1522 1524 1527 1529 1531 1533 1535 1537 1539 1540 1541 1543 1544 1544 1545 1546 1547 1548 1549 1550 1550 1551 1552 1552 1552 1553 1553 1554 1554 1554 1554 1554 1553 1553 1552 1551 1550 1549 1547 1546 1545 1544 1542 1541 1539 1537 1536 1534 1532 1529 1527 1524 1522 1520 1517 1514 1511 1507 1504 1501 1497 1494 1491 1487 1483 1480 1477 1474 1470
1482 1485 1487 1490 1493 1495 1498 1500 1503 1506 1508 1510 1512 1514 1516 1518 1520 1522 1525 1527 1529 1531 1533 1535 1537 1538 1540 1541 1543 1544 1545 1546 1546 1547 1548 1549 1549 1550 1550 1551 1551 1551 1552 1552 1552 1552 1552 1552 1552 1551 1551 1550 1549 1548 1546 1545 1544 1543 1541 1540 1538 1536 1535 1533 1531 1529 1527 1524 1522 1519 1517 1514 1511 1508 1505 1502 1498 1495 1491 1488 1485 1482 1478 1475 1472
1481 1483 1486 1489 1491 1493 1496 1498 1501 1504 1507 1510 1512 1514 1516 1518 1520 1522 1524 1526 1527 1529 1531 1533 1535 1536 1538 1540 1541 1542 1544 1544 1545 1545 1546 1547 1548 1548 1549 1549 1549 1549 1550 1550 1551 1551 1551 1551 1550 1550 1549 1548 1547 1546 1545 1544 1543 1542 1540 1539 1537 1535 1534 1532 1530 1529 1527 1524 1522 1520 1517 1514 1511 1508 1505 1502 1499 1496 1493 1490 1486 1483 1479 1476 1473
1480 1483 1485 1488 1489 1491 1494 1497 1500 1503 1506 1509 1511 1514 1516 1518 1520 1522 1524 1525 1526 1528 1530 1532 1534 1535 1537 1538 1540 1541 1542 1543 1543 1544 1545 1546 1546 1546 1547 1547 1547 1547 1548 1549 1549 1549 1549 1549 1549 1549 1548 1547 1546 1545 1544 1543 1542 1540 1539 1537 1536 1534 1533 1531 1530 1528 1526 1524 1522 1519 1517 1514 1511 1508 1506 1503 1500 1496 1493 1491 1488 1485 1481 1478 1475
1478 1481 1484 1486 1488 1490 1493 1496 1498 1502 1505 1507 1510 1514 1517 1519 1520 1522 1523 1525 1527 1528 1530 1532 1533 1534 1536 1537 1538 1539 1540 1541 1542 1543 1543 1544 1544 1544 1545 1545 1545 1546 1546 1546 1547 1547 1547 1547 1547 1547 1546 1546 1545 1544 1543 1542 1541 1539 1538 1536 1535 1533 1532 1530 1529 1527 1525 1523 1521 1519 1516 1514 1511 1509 1506 1503 1501 1498 1495 1492 1489 1487 1484 1480 1477
1476 1479 1481 1484 1486 1489 1491 1494 1496 1500 1503 1505 1508 1512 1515 1518 1520 1522 1523 1524 1526 1527 1529 1531 1532 1533 1534 1535 1536 1537 1538 1539 1540 1541 1541 1542 1542 1543 1543 1544 1544 1544 1544 1544 1544 1544 1544 1545 1545 1545 1545 1544 1543 1543 1542 1541 1539 1538 1537 1535 1534 1532 1531 1529 1528 1526 1525 1523 1521 1518 1516 1513 1511 1509 1506 1504 1501 1498 1496 1493 1490 1488 1485 1482 1479
1475 1477 1479 1482 1484 1486 1489 1491 1494 1497 1500 1502 1505 1508 1512 1516 1518 1520 1522 1523 1525 1526 1527 1529 1530 1531 1532 1533 1535 1535 1536 1537 1538 1538 1539 1540 1541 1541 1542 1542 1542 1542 1543 1543 1543 1542 1542 1543 1543 1543 1543 1542 1542 1541 1540 1539 1538 1537 1535 1534 1533 1531 1530 1529 1527 1525 1524 1522 1520 1518 1516 1513 1511 1508 1506 1504 1501 1499 1496 1494 1491 1488 1486 1483 1481
1473 1475 1478 1480 1482 1484 1486 1489 1491 1494 1496 1499 1501 1503 1507 1511 1515 1517 1520 1522 1523 1525 1526 1526 1527 1528 1530 1532 1533 1533 1534 1534 1535 1536 1538 1539 1539 1540 1541 1541 1541 1541 1541 1541 1541 1541 1540 1541 1541 1541 1541 1540 1540 1539 1539 1538 1537 1536 1534 1533 1532 1530 1529 1528 1526 1525 1523 1521 1519 1517 1515 1513 1511 1508 1506 1504 1501 1499 1497 1494 1492 1489 1486 1484 1482
1471 1473 1476 1478 1480 1482 1484 1487 1489 1491 1493 1495 1497 1499 1503 1507 1510 1514 1517 1519 1521 1522 1524 1524 1525 1527 1529 1530 1530 1531 1531 1532 1534 1535 1536 1537 1538 1539 1539 1539 1539 1539 1539 1539 1539 1539 1538 1538 1538 1538 1538 1538 1538 1537 1537 1536 1535 1534 1533 1532 1530 1529 1528 1526 1525 1523 1522 1520 1518 1517 1515 1513 1510 1508 1506 1503 1501 1499 1497 1495 1492 1490 1488 1485 1483
1469 1471 1474 1476 1478 1480 1482 1485 1486 1488 1491 1493 1495 1497 1500 1504 1507 1511 1514 1516 1518 1520 1521 1522 1524 1525 1527 1527 1528 1529 1529 1531 1532 1534 1535 1536 1537 1537 1538 1538 1538 1538 1538 1538 1537 1537 1536 1536 1536 1536 1536 1536 1536 1536 1535 1534 1533 1532 1531 1530 1529 1527 1526 1525 1523 1522 1520 1519 1517 1515 1514 1512 1510 1508 1505 1503 1501 1499 1497 1495 1493 1491 1488 1486 1484
1467 1469 1472 1474 1476 1478 1480 1482 1485 1487 1489 1491 1494 1496 1498 1502 1505 1509 1512 1514 1516 1517 1519 1520 1521 1523 1524 1525 1526 1527 1527 1529 1531 1532 1533 1534 1535 1535 1535 1536 1536 1536 1536 1536 1535 1535 1534 1534 1534 1534 1534 1534 1534 1534 1533 1532 1532 1531 1529 1528 1527 1526 1524 1523 1521 1520 1519 1517 1515 1514 1512 1511 1509 1507 1505 1503 1501 1499 1497 1495 1493 1491 1489 1486 1484
1465 1468 1470 1472 1474 1476 1478 1480 1483 1485 1487 1489 1492 1495 1497 1500 1503 1507 1509 1512 1513 1515 1516 1518 1519 1520 1521 1523 1524 1525 1526 1527 1528 1530 1531 1532 1533 1533 1533 1534 1534 1534 1534 1534 1533 1533 1532 1532 1532 1532 1532 1532 1532 1532 1531 1530 1529 1528 1527 1526 1525 1523 1522 1520 1519 1518 1516 1515 1513 1512 1510 1509 1507 1506 1504 1502 1500 1498 1496 1494 1492 1490 1488 1486 1484
1463 1466 1468 1470 1472 1474 1477 1479 1482 1484 1486 1489 1491 1494 1496 1499 1502 1504 1507 1509 1511 1512 1514 1515 1517 1519 1520 1521 1522 1523 1524 1525 1526 1528 1529 1529 1530 1531 1531 1531 1532 1532 1532 1531 1531 1531 1530 1530 1530 1530 1530 1530 1530 1529 1529 1528 1527 1526 1525 1524 1522 1521 1519 1518 1517 1515 1514 1512 1511 1509 1508 1507 1505 1504 1502 1501 1499 1497 1495 1494 1492 1490 1488 1486 1484
1462 1464 1466 1468 1470 1473 1475 1478 1480 1483 1485 1488 1490 1492 1494 1497 1500 1502 1505 1507 1508 1510 1512 1514 1516 1517 1518 1519 1520 1521 1522 1524 1525 1525 1526 1527 1528 1528 1529 1529 1529 1529 1529 1529 1529 1529 1528 1528 1528 1528 1528 1528 1528 1527 1527 1526 1525 1524 1523 1521 1520 1519 1517 1516 1514 1513 1511 1510 1508 1507 1505 1504 1503 1502 1500 1499 1498 1496 1494 1493 1491 1489 1487 1485 1484
1460 1462 1464 1466 1468 1471 1473 1476 1478 1480 1483 1485 1487 1490 1493 1495 1498 1500 1503 1504 1506 1508 1510 1512 1513 1515 1516 1517 1518 1519 1521 1522 1522 1523 1524 1525 1525 1526 1526 1526 1526 1526 1526 1526 1526 1526 1526 1526 1526 1525 1525 1525 1525 1525 1524 1523 1522 1521 1520 1519 1518 1516 1515 1514 1512 1511 1509 1508 1506 1505 1503 1502 1500 1499 1498 1497 1495 1494 1492 1491 1490 1488 1486 1484 1483
1459 1460 1462 1464 1467 1469 1471 1474 1476 1478 1481 1483 1485 1488 1491 1493 1496 1498 1500 1502 1504 1506 1508 1509 1511 1513 1514 1515 1516 1517 1518 1519 1520 1521 1521 1522 1522 1523 1524 1524 1524 1524 1524 1524 1524 1524 1524 1523 1523 1523 1523 1522 1522 1522 1521 1520 1519 1519 1517 1516 1515 1514 1513 1512 1510 1509 1507 1506 1504 1503 1501 1499 1498 1497 1495 1494 1493 1491 1490 1489 1488 1486 1485 1483 1482
1457 1459 1461 1463 1465 1468 1470 1472 1474 1476 1479 1481 1483 1486 1489 1492 1494 1496 1498 1500 1502 1504 1505 1507 1509 1510 1511 1513 1514 1515 1516 1517 1517 1518 1519 1519 1520 1520 1521 1521 1521 1521 1521 1521 1521 1521 1521 1521 1520 1520 1520 1519 1519 1518 1518 1517 1516 1516 1515 1514 1513 1512 1511 1509 1508 1507 1505 1504 1502 1501 1499 1497 1496 1494 1493 1492 1490 1489 1488 1486 1485 1484 1483 1481 1480
1455 1457 1459 1461 1464 1466 1468 1470 1472 1474 1477 1479 1482 1484 1487 1489 1492 1494 1496 1498 1500 1502 1503 1505 1506 1508 1509 1510 1511 1512 1513 1514 1514 1515 1516 1516 1517 1517 1518 1518 1518 1518 1518 1518 1518 1518 1518 1518 1518 1517 1517 1517 1516 1515 1515 1514 1513 1512 1512 1511 1510 1509 1508 1507 1505 1504 1503 1501 1500 1498 1497 1495 1493 1492 1490 1489 1488 1486 1485 1484 1482 1481 1480 1479 1477
1453 1455 1457 1460 1462 1464 1466 1468 1470 1473 1475 1477 1480 1482 1485 1487 1489 1492 1494 1496 1498 1499 1501 1502 1503 1505 1506 1507 1508 1509 1510 1511 1511 1512 1513 1513 1514 1514 1515 1515 1515 1515 1515 1515 1516 1515 1515 1515 1515 1514 1514 1513 1513 1512 1512 1511 1510 1509 1508 1508 1507 1506 1505 1503 1502 1501 1499 1498 1497 1495 1494 1492 1491 1489 1488 1486 1485 1483 1482 1481 1479 1478 1477 1476 1474
1452 1454 1456 1458 1461 1463 1465 1467 1469 1471 1473 1476 1478 1480 1483 1485 1488 1490 1492 1494 1495 1497 1498 1499 1501 1502 1503 1504 1505 1506 1507 1508 1509 1509 1510 1510 1511 1511 1512 1512 1512 1513 1513 1512 1512 1512 1512 1512 1512 1511 1511 1510 1509 1509 1508 1507 1506 1506 1505 1504 1503 1502 1501 1500 1499 1497 1496 1495 1493 1492 1490 1489 1488 1486 1485 1483 1482 1480 1479 1478 1476 1475 1474 1472 1471